Regional Weather Roundup
Issued by NWS

Current Version | Previous Version | Text Only | Print | Product List | Glossary On
Versions: 1 2 3 4 5 6 7 8 9 10 11 12 13 14 15 16 17 18 19 20 21 22 23 24 25 26 27 28 29 30 31 32 33 34 35 36 37 38 39 40 41 42 43 44 45 46 47 48 49 50
000
ASUS42 KKEY 020510
RWRKEY

FLORIDA REGIONAL WEATHER ROUNDUP FOR THE FLORIDA KEYS
NATIONAL WEATHER SERVICE KEY WEST FLORIDA
100 AM EDT SAT JUL 02 2016

...SOUTH FLORIDA AND THE KEYS...

CITY           SKY/WX    TMP DP  RH WIND       PRES   REMARKS
FORT MYERS     MOCLDY    82  74  76 S3        30.07F
SW REGIONAL AP MOCLDY    81  75  82 SE3       30.08S
NAPLES         CLEAR     82  76  81 CALM      30.08S
MIAMI          MOCLDY    79  75  87 CALM      30.09F
WEST KENDALL   CLOUDY    78  74  87 CALM      30.08F
HOMESTEAD      CLOUDY    78  76  94 CALM      30.08F
MARATHON       PTCLDY    84  76  76 E3        30.08F HX  93
BOCA CHICA NAS CLOUDY    83  76  79 E6        30.08F HX  91
KEY WEST INTL  PTCLDY    84  78  82 SE5       30.08F HX  95

...INTERNATIONAL WEATHER...

CITY           SKY/WX    TMP DP  RH WIND       PRES   REMARKS
NASSAU BAHAMAS PTCLDY    84  73  70 E5        30.12F HX  91
CANCUN MEXICO  PTCLDY    82  79  89 E5        30.08S HX  93
COZUMEL MEXICO PTCLDY    75  75 100 E5        30.08R

ADJACENT COASTAL WATERS...

STATION/POSITION TIME  SKY/WX   TEMP    WIND        PRES    WAVE
                                AIR SEA DIR/SP/G            HT/PER
                 (UTC)          (F)     (DEG/KT/KT) (MB)    (FT/S)
PULASKI SHOAL LI 0500            85     100/  5/  6 1018.6F
SAND KEY         0450            85     120/  7/  8 1019.0F
SOMBRERO KEY     NOT AVBL
LONG KEY         0400            86 91  130/  6/  7 1019.2F
MOLASSES REEF    0300            84 86     CALM     1019.6
FOWEY ROCKS      0400            84 86  170/  7/  8 1019.7F

$$



USA.gov is the U.S. government's official web portal to all federal, state and local government web resources and services.